Skip Page Navigation
NASA JPL Caltech
NASA Logo - Jet Propulsion Laboratory + View the NASA Portal
+ Center for Near-Earth Object Studies
JPL Home Earth Solar System Stars & Galaxies Technology
JPL Solar System Dynamics
BODIES ORBITS EPHEMERIDES TOOLS PHYSICAL DATA DISCOVERY FAQ SITE MAP
JPL Small-Body Database Browser
Search: [ help ]  
160847 (2001 BD68)
Classification: Inner Main-belt Asteroid          SPK-ID: 2160847
Ephemeris | Orbit Diagram | Orbital Elements | Mission Design | Physical Parameters | Discovery Circumstances ]

[ show orbit diagram ]
Orbital Elements at Epoch 2459000.5 (2020-May-31.0) TDB
Reference: JPL 19 (heliocentric ecliptic J2000)
 Element Value Uncertainty (1-sigma)   Units 
e .06064867050311875 6.2295e-08  
a 1.917386731538418 6.783e-09 au
q 1.801099775430293 1.192e-07 au
i 20.26689069161114 6.529e-06 deg
node 335.213073043105 1.3446e-05 deg
peri 64.75120658926238 6.3301e-05 deg
M 201.8551267849609 5.7405e-05 deg
tp 2459426.505905990083
(2021-Jul-31.00590599)
0.00015443 TDB
period 969.7571792156315
2.66
5.146e-06
1.409e-08
d
yr
n .3712269501228944 1.9699e-09 deg/d
Q 2.033673687646544 7.1944e-09 au
  Orbit Determination Parameters
   # obs. used (total)      738  
   data-arc span      6622 days (18.13 yr)  
   first obs. used      2000-12-04  
   last obs. used      2019-01-21  
   planetary ephem.      DE431  
   SB-pert. ephem.      SB431-N16  
   condition code      0  
   norm. resid. RMS      .53265  
   source      ORB  
   producer      Otto Matic  
   solution date      2019-Jul-13 05:32:56  

Additional Information
 Earth MOID = .841308 au 
 Jupiter MOID = 3.1381 au 
 T_jup = 3.851 
[ hide covariance matrix ]
Orbital Elements at Epoch 2457184.5 (2015-Jun-11.0) TDB
Reference: JPL 19 (heliocentric ecliptic J2000)
 Element Value Uncertainty (1-sigma)   Units 
e .06059912243965519 6.2303e-08  
q 1.801239632871288 1.1917e-07 au
tp 2457486.791629665955
(2016-Apr-08.29162967)
0.00015608 TDB
node 335.2422416754447 1.3439e-05 deg
peri 64.66962314908642 6.3399e-05 deg
i 20.27149100082938 6.5302e-06 deg
  Orbit Determination Parameters
   # obs. used (total)      738  
   data-arc span      6622 days (18.13 yr)  
   first obs. used      2000-12-04  
   last obs. used      2019-01-21  
   planetary ephem.      DE431  
   SB-pert. ephem.      SB431-N16  
   condition code      0  
   norm. resid. RMS      .53265  
   source      ORB  
   producer      Otto Matic  
   solution date      2019-Jul-13 05:32:56  

Additional Information
 Jupiter MOID = 3.1381 au 
 T_jup = 3.851 
Orbit Covariance (6×6)
  e q tp node peri i
e 3.881665801400728E-15 -7.414046353034373E-15 -6.315700670263774E-12 3.098488199505916E-14 -2.534450716833183E-12 -4.320958042486809E-14
q -7.414046353034373E-15 1.420181488091616E-14 1.194939737353112E-11 -5.823217818577222E-14 4.788014382392992E-12 8.393032795869448E-14
tp -6.315700670263774E-12 1.194939737353112E-11 2.435981532927603E-8 -9.523653249518764E-11 9.680916898964242E-9 6.168541896003531E-11
node 3.098488199505916E-14 -5.823217818577222E-14 -9.523653249518764E-11 1.806142347503253E-10 -2.062942330988606E-10 3.160373682386482E-11
peri -2.534450716833183E-12 4.788014382392992E-12 9.680916898964242E-9 -2.062942330988606E-10 4.019440644281354E-9 -5.623099719844594E-12
i -4.320958042486809E-14 8.393032795869448E-14 6.168541896003531E-11 3.160373682386482E-11 -5.623099719844594E-12 4.264374455922799E-11

Ephemeris | Orbit Diagram | Orbital Elements | Mission Design | Physical Parameters | Discovery Circumstances ]

Physical Parameter Table
Parameter Symbol Value Units Sigma Reference Notes
absolute magnitude H 15.9   n/a MPO459736  
diameter diameter 1.341 km 0.153 urn:nasa:pds:neowise_diameters_albedos::2.0[mainbelt] (http://adsabs.harvard.edu/abs/2011ApJ...741...68M)  
geometric albedo albedo 0.679   0.173 urn:nasa:pds:neowise_diameters_albedos::2.0[mainbelt] (http://adsabs.harvard.edu/abs/2011ApJ...741...68M)  

160847 (2001 BD68)          Discovered 2001-Jan-31 by LINEAR at Socorro
Reference: 20070828/Numbers.arcLast Updated: 2007-08-30
Ephemeris | Orbit Diagram | Orbital Elements | Mission Design | Physical Parameters | Discovery Circumstances ]
ABOUT SSD CREDITS/AWARDS PRIVACY/COPYRIGHT GLOSSARY LINKS
FirstGov 2020-Oct-26 05:59 UT
(server date/time)  
NASA Home Page
Site Manager:   Ryan S. Park
Webmaster  Alan B. Chamberlin